Time,TemperatureF,DewpointF,PressureIn,WindDirection,WindDirectionDegrees,WindSpeedMPH,WindSpeedGustMPH,Humidity,HourlyPrecipIn,Conditions,Clouds,dailyrainin,SoftwareType,DateUTC
2013-02-19 00:02:00,44.0,-99.9,-100.00,SSE,160,3.0,10.0,-999,-99.99,,,-99.99,,2013-02-19 05:02:00,
2013-02-19 00:13:00,44.0,-99.9,-100.00,SSE,160,3.0,10.0,-999,-99.99,,,-99.99,,2013-02-19 05:13:00,
2013-02-19 00:23:00,44.0,-99.9,-100.00,SSE,160,3.0,10.0,-999,-99.99,,,-99.99,,2013-02-19 05:23:00,
2013-02-19 00:33:00,44.0,-99.9,-100.00,SSE,160,3.0,10.0,-999,-99.99,,,-99.99,,2013-02-19 05:33:00,
2013-02-19 00:40:00,43.0,-99.9,-100.00,SE,130,5.0,8.0,-999,-99.99,,,-99.99,,2013-02-19 05:40:00,
2013-02-19 01:03:00,43.0,-99.9,-100.00,SE,130,5.0,8.0,-999,-99.99,,,-99.99,,2013-02-19 06:03:00,
2013-02-19 01:12:00,43.0,-99.9,-100.00,SE,130,5.0,8.0,-999,-99.99,,,-99.99,,2013-02-19 06:12:00,
2013-02-19 01:22:00,43.0,-99.9,-100.00,SE,130,5.0,8.0,-999,-99.99,,,-99.99,,2013-02-19 06:22:00,
2013-02-19 01:33:00,43.0,-99.9,-100.00,SE,130,5.0,8.0,-999,-99.99,,,-99.99,,2013-02-19 06:33:00,
2013-02-19 01:40:00,42.0,-99.9,-100.00,SE,140,1.0,8.0,-999,-99.99,,,-99.99,,2013-02-19 06:40:00,
2013-02-19 02:02:00,42.0,-99.9,-100.00,SE,140,1.0,8.0,-999,-99.99,,,-99.99,,2013-02-19 07:02:00,
2013-02-19 02:12:00,42.0,-99.9,-100.00,SE,140,1.0,8.0,-999,-99.99,,,-99.99,,2013-02-19 07:12:00,
2013-02-19 02:22:00,42.0,-99.9,-100.00,SE,140,1.0,8.0,-999,-99.99,,,-99.99,,2013-02-19 07:22:00,
2013-02-19 02:33:00,42.0,-99.9,-100.00,SE,140,1.0,8.0,-999,-99.99,,,-99.99,,2013-02-19 07:33:00,
2013-02-19 02:40:00,41.0,-99.9,-100.00,SE,140,5.0,8.0,-999,-99.99,,,-99.99,,2013-02-19 07:40:00,
2013-02-19 03:02:00,41.0,-99.9,-100.00,SE,140,5.0,8.0,-999,-99.99,,,-99.99,,2013-02-19 08:02:00,
2013-02-19 03:12:00,41.0,-99.9,-100.00,SE,140,5.0,8.0,-999,-99.99,,,-99.99,,2013-02-19 08:12:00,
2013-02-19 03:22:00,41.0,-99.9,-100.00,SE,140,5.0,8.0,-999,-99.99,,,-99.99,,2013-02-19 08:22:00,
2013-02-19 03:32:00,41.0,-99.9,-100.00,SE,140,5.0,8.0,-999,-99.99,,,-99.99,,2013-02-19 08:32:00,
2013-02-19 03:40:00,41.0,-99.9,-100.00,South,180,5.0,13.0,-999,-99.99,,,-99.99,,2013-02-19 08:40:00,
2013-02-19 04:02:00,41.0,-99.9,-100.00,South,180,5.0,13.0,-999,-99.99,,,-99.99,,2013-02-19 09:02:00,
2013-02-19 04:11:00,41.0,-99.9,-100.00,South,180,5.0,13.0,-999,-99.99,,,-99.99,,2013-02-19 09:11:00,
2013-02-19 04:22:00,41.0,-99.9,-100.00,South,180,5.0,13.0,-999,-99.99,,,-99.99,,2013-02-19 09:22:00,
2013-02-19 04:32:00,41.0,-99.9,-100.00,South,180,5.0,13.0,-999,-99.99,,,-99.99,,2013-02-19 09:32:00,
2013-02-19 04:40:00,42.0,-99.9,-100.00,South,170,5.0,9.0,-999,-99.99,,,-99.99,,2013-02-19 09:40:00,
2013-02-19 05:02:00,42.0,-99.9,-100.00,South,170,5.0,9.0,-999,-99.99,,,-99.99,,2013-02-19 10:02:00,
2013-02-19 05:12:00,42.0,-99.9,-100.00,South,170,5.0,9.0,-999,-99.99,,,-99.99,,2013-02-19 10:12:00,
2013-02-19 05:22:00,42.0,-99.9,-100.00,South,170,5.0,9.0,-999,-99.99,,,-99.99,,2013-02-19 10:22:00,
2013-02-19 05:32:00,42.0,-99.9,-100.00,South,170,5.0,9.0,-999,-99.99,,,-99.99,,2013-02-19 10:32:00,
2013-02-19 05:40:00,42.0,-99.9,-100.00,SSE,150,2.0,6.0,-999,-99.99,,,-99.99,,2013-02-19 10:40:00,
2013-02-19 06:02:00,42.0,-99.9,-100.00,SSE,150,2.0,6.0,-999,-99.99,,,-99.99,,2013-02-19 11:02:00,
2013-02-19 06:12:00,42.0,-99.9,-100.00,SSE,150,2.0,6.0,-999,-99.99,,,-99.99,,2013-02-19 11:12:00,
2013-02-19 06:22:00,42.0,-99.9,-100.00,SSE,150,2.0,6.0,-999,-99.99,,,-99.99,,2013-02-19 11:22:00,
2013-02-19 06:32:00,42.0,-99.9,-100.00,SSE,150,2.0,6.0,-999,-99.99,,,-99.99,,2013-02-19 11:32:00,
2013-02-19 06:40:00,43.0,-99.9,-100.00,North,0,0.0,2.0,-999,-99.99,,,-99.99,,2013-02-19 11:40:00,
2013-02-19 07:02:00,43.0,-99.9,-100.00,North,0,0.0,2.0,-999,-99.99,,,-99.99,,2013-02-19 12:02:00,
2013-02-19 07:12:00,43.0,-99.9,-100.00,North,0,0.0,2.0,-999,-99.99,,,-99.99,,2013-02-19 12:12:00,
2013-02-19 07:22:00,43.0,-99.9,-100.00,North,0,0.0,2.0,-999,-99.99,,,-99.99,,2013-02-19 12:22:00,
2013-02-19 07:33:00,43.0,-99.9,-100.00,North,0,0.0,2.0,-999,-99.99,,,-99.99,,2013-02-19 12:33:00,
2013-02-19 07:40:00,41.0,-99.9,-100.00,SSE,160,2.0,5.0,-999,-99.99,,,-99.99,,2013-02-19 12:40:00,
2013-02-19 08:02:00,41.0,-99.9,-100.00,SSE,160,2.0,5.0,-999,-99.99,,,-99.99,,2013-02-19 13:02:00,
2013-02-19 08:11:00,41.0,-99.9,-100.00,SSE,160,2.0,5.0,-999,-99.99,,,-99.99,,2013-02-19 13:11:00,
2013-02-19 08:22:00,41.0,-99.9,-100.00,SSE,160,2.0,5.0,-999,-99.99,,,-99.99,,2013-02-19 13:22:00,
2013-02-19 08:32:00,41.0,-99.9,-100.00,SSE,160,2.0,5.0,-999,-99.99,,,-99.99,,2013-02-19 13:32:00,
2013-02-19 08:40:00,42.0,-99.9,-100.00,NNW,330,2.0,6.0,-999,-99.99,,,-99.99,,2013-02-19 13:40:00,
2013-02-19 09:02:00,42.0,-99.9,-100.00,NNW,330,2.0,6.0,-999,-99.99,,,-99.99,,2013-02-19 14:02:00,
2013-02-19 09:12:00,42.0,-99.9,-100.00,NNW,330,2.0,6.0,-999,-99.99,,,-99.99,,2013-02-19 14:12:00,
2013-02-19 09:22:00,42.0,-99.9,-100.00,NNW,330,2.0,6.0,-999,-99.99,,,-99.99,,2013-02-19 14:22:00,
2013-02-19 09:33:00,42.0,-99.9,-100.00,NNW,330,2.0,6.0,-999,-99.99,,,-99.99,,2013-02-19 14:33:00,
2013-02-19 09:40:00,43.0,-99.9,-100.00,North,0,0.0,2.0,-999,-99.99,,,-99.99,,2013-02-19 14:40:00,
2013-02-19 10:02:00,43.0,-99.9,-100.00,North,0,0.0,2.0,-999,-99.99,,,-99.99,,2013-02-19 15:02:00,
2013-02-19 10:11:00,43.0,-99.9,-100.00,North,0,0.0,2.0,-999,-99.99,,,-99.99,,2013-02-19 15:11:00,
2013-02-19 10:22:00,43.0,-99.9,-100.00,North,0,0.0,2.0,-999,-99.99,,,-99.99,,2013-02-19 15:22:00,
2013-02-19 10:32:00,43.0,-99.9,-100.00,North,0,0.0,2.0,-999,-99.99,,,-99.99,,2013-02-19 15:32:00,
2013-02-19 10:40:00,44.0,-99.9,-100.00,ESE,110,1.0,3.0,-999,-99.99,,,-99.99,,2013-02-19 15:40:00,
2013-02-19 11:02:00,44.0,-99.9,-100.00,ESE,110,1.0,3.0,-999,-99.99,,,-99.99,,2013-02-19 16:02:00,
2013-02-19 11:12:00,44.0,-99.9,-100.00,ESE,110,1.0,3.0,-999,-99.99,,,-99.99,,2013-02-19 16:12:00,
2013-02-19 11:22:00,44.0,-99.9,-100.00,ESE,110,1.0,3.0,-999,-99.99,,,-99.99,,2013-02-19 16:22:00,
2013-02-19 11:32:00,44.0,-99.9,-100.00,ESE,110,1.0,3.0,-999,-99.99,,,-99.99,,2013-02-19 16:32:00,
2013-02-19 11:40:00,44.0,-99.9,-100.00,North,0,0.0,3.0,-999,-99.99,,,-99.99,,2013-02-19 16:40:00,
2013-02-19 12:01:00,44.0,-99.9,-100.00,North,0,0.0,3.0,-999,-99.99,,,-99.99,,2013-02-19 17:01:00,
2013-02-19 12:11:00,44.0,-99.9,-100.00,North,0,0.0,3.0,-999,-99.99,,,-99.99,,2013-02-19 17:11:00,
2013-02-19 12:21:00,44.0,-99.9,-100.00,North,0,0.0,3.0,-999,-99.99,,,-99.99,,2013-02-19 17:21:00,
2013-02-19 12:32:00,44.0,-99.9,-100.00,North,0,0.0,3.0,-999,-99.99,,,-99.99,,2013-02-19 17:32:00,
2013-02-19 12:40:00,45.0,-99.9,-100.00,North,0,0.0,7.0,-999,-99.99,,,-99.99,,2013-02-19 17:40:00,
2013-02-19 13:02:00,45.0,-99.9,-100.00,North,0,0.0,7.0,-999,-99.99,,,-99.99,,2013-02-19 18:02:00,
2013-02-19 13:11:00,45.0,-99.9,-100.00,North,0,0.0,7.0,-999,-99.99,,,-99.99,,2013-02-19 18:11:00,
2013-02-19 13:22:00,45.0,-99.9,-100.00,North,0,0.0,7.0,-999,-99.99,,,-99.99,,2013-02-19 18:22:00,
2013-02-19 13:32:00,45.0,-99.9,-100.00,North,0,0.0,7.0,-999,-99.99,,,-99.99,,2013-02-19 18:32:00,
2013-02-19 13:40:00,49.0,-99.9,-100.00,NW,310,1.0,9.0,-999,-99.99,,,-99.99,,2013-02-19 18:40:00,
2013-02-19 14:01:00,49.0,-99.9,-100.00,NW,310,1.0,9.0,-999,-99.99,,,-99.99,,2013-02-19 19:01:00,
2013-02-19 14:11:00,49.0,-99.9,-100.00,NW,310,1.0,9.0,-999,-99.99,,,-99.99,,2013-02-19 19:11:00,
2013-02-19 14:22:00,49.0,-99.9,-100.00,NW,310,1.0,9.0,-999,-99.99,,,-99.99,,2013-02-19 19:22:00,
2013-02-19 14:32:00,49.0,-99.9,-100.00,NW,310,1.0,9.0,-999,-99.99,,,-99.99,,2013-02-19 19:32:00,
2013-02-19 14:40:00,52.0,-99.9,-100.00,SSW,200,3.0,17.0,-999,-99.99,,,-99.99,,2013-02-19 19:40:00,
2013-02-19 15:02:00,52.0,-99.9,-100.00,SSW,200,3.0,17.0,-999,-99.99,,,-99.99,,2013-02-19 20:02:00,
2013-02-19 15:12:00,52.0,-99.9,-100.00,SSW,200,3.0,17.0,-999,-99.99,,,-99.99,,2013-02-19 20:12:00,
2013-02-19 15:22:00,52.0,-99.9,-100.00,SSW,200,3.0,17.0,-999,-99.99,,,-99.99,,2013-02-19 20:22:00,
2013-02-19 15:32:00,52.0,-99.9,-100.00,SSW,200,3.0,17.0,-999,-99.99,,,-99.99,,2013-02-19 20:32:00,
2013-02-19 15:40:00,52.0,-99.9,-100.00,West,270,8.0,14.0,-999,-99.99,,,-99.99,,2013-02-19 20:40:00,
2013-02-19 16:02:00,52.0,-99.9,-100.00,West,270,8.0,14.0,-999,-99.99,,,-99.99,,2013-02-19 21:02:00,
2013-02-19 16:11:00,52.0,-99.9,-100.00,West,270,8.0,14.0,-999,-99.99,,,-99.99,,2013-02-19 21:11:00,
2013-02-19 16:22:00,52.0,-99.9,-100.00,West,270,8.0,14.0,-999,-99.99,,,-99.99,,2013-02-19 21:22:00,
2013-02-19 16:32:00,52.0,-99.9,-100.00,West,270,8.0,14.0,-999,-99.99,,,-99.99,,2013-02-19 21:32:00,
2013-02-19 16:40:00,56.0,-99.9,-100.00,West,260,3.0,10.0,-999,-99.99,,,-99.99,,2013-02-19 21:40:00,
2013-02-19 17:02:00,56.0,-99.9,-100.00,West,260,3.0,10.0,-999,-99.99,,,-99.99,,2013-02-19 22:02:00,
2013-02-19 17:11:00,56.0,-99.9,-100.00,West,260,3.0,10.0,-999,-99.99,,,-99.99,,2013-02-19 22:11:00,
2013-02-19 17:22:00,56.0,-99.9,-100.00,West,260,3.0,10.0,-999,-99.99,,,-99.99,,2013-02-19 22:22:00,
2013-02-19 17:32:00,56.0,-99.9,-100.00,West,260,3.0,10.0,-999,-99.99,,,-99.99,,2013-02-19 22:32:00,
2013-02-19 17:40:00,57.0,-99.9,-100.00,WSW,250,3.0,10.0,-999,-99.99,,,-99.99,,2013-02-19 22:40:00,
2013-02-19 18:01:00,57.0,-99.9,-100.00,WSW,250,3.0,10.0,-999,-99.99,,,-99.99,,2013-02-19 23:01:00,
2013-02-19 18:11:00,57.0,-99.9,-100.00,WSW,250,3.0,10.0,-999,-99.99,,,-99.99,,2013-02-19 23:11:00,
2013-02-19 18:21:00,57.0,-99.9,-100.00,WSW,250,3.0,10.0,-999,-99.99,,,-99.99,,2013-02-19 23:21:00,
2013-02-19 18:32:00,57.0,-99.9,-100.00,WSW,250,3.0,10.0,-999,-99.99,,,-99.99,,2013-02-19 23:32:00,
2013-02-19 18:40:00,54.0,-99.9,-100.00,SSW,210,3.0,8.0,-999,-99.99,,,-99.99,,2013-02-19 23:40:00,
2013-02-19 19:02:00,54.0,-99.9,-100.00,SSW,210,3.0,8.0,-999,-99.99,,,-99.99,,2013-02-20 00:02:00,
2013-02-19 19:12:00,54.0,-99.9,-100.00,SSW,210,3.0,8.0,-999,-99.99,,,-99.99,,2013-02-20 00:12:00,
2013-02-19 19:22:00,54.0,-99.9,-100.00,SSW,210,3.0,8.0,-999,-99.99,,,-99.99,,2013-02-20 00:22:00,
2013-02-19 19:32:00,54.0,-99.9,-100.00,SSW,210,3.0,8.0,-999,-99.99,,,-99.99,,2013-02-20 00:32:00,
2013-02-19 19:40:00,54.0,-99.9,-100.00,WSW,240,5.0,17.0,-999,-99.99,,,-99.99,,2013-02-20 00:40:00,
2013-02-19 20:02:00,54.0,-99.9,-100.00,WSW,240,5.0,17.0,-999,-99.99,,,-99.99,,2013-02-20 01:02:00,
2013-02-19 20:11:00,54.0,-99.9,-100.00,WSW,240,5.0,17.0,-999,-99.99,,,-99.99,,2013-02-20 01:11:00,
2013-02-19 20:22:00,54.0,-99.9,-100.00,WSW,240,5.0,17.0,-999,-99.99,,,-99.99,,2013-02-20 01:22:00,
2013-02-19 20:32:00,54.0,-99.9,-100.00,WSW,240,5.0,17.0,-999,-99.99,,,-99.99,,2013-02-20 01:32:00,
2013-02-19 20:40:00,53.0,-99.9,-100.00,West,270,14.0,16.0,-999,-99.99,,,-99.99,,2013-02-20 01:40:00,
2013-02-19 21:02:00,53.0,-99.9,-100.00,West,270,14.0,16.0,-999,-99.99,,,-99.99,,2013-02-20 02:02:00,
2013-02-19 21:11:00,53.0,-99.9,-100.00,West,270,14.0,16.0,-999,-99.99,,,-99.99,,2013-02-20 02:11:00,
2013-02-19 21:22:00,53.0,-99.9,-100.00,West,270,14.0,16.0,-999,-99.99,,,-99.99,,2013-02-20 02:22:00,
2013-02-19 21:32:00,53.0,-99.9,-100.00,West,270,14.0,16.0,-999,-99.99,,,-99.99,,2013-02-20 02:32:00,
2013-02-19 21:40:00,53.0,-99.9,-100.00,WSW,250,13.0,20.0,-999,-99.99,,,-99.99,,2013-02-20 02:40:00,
2013-02-19 22:02:00,53.0,-99.9,-100.00,WSW,250,13.0,20.0,-999,-99.99,,,-99.99,,2013-02-20 03:02:00,
2013-02-19 22:12:00,53.0,-99.9,-100.00,WSW,250,13.0,20.0,-999,-99.99,,,-99.99,,2013-02-20 03:12:00,
2013-02-19 22:22:00,53.0,-99.9,-100.00,WSW,250,13.0,20.0,-999,-99.99,,,-99.99,,2013-02-20 03:22:00,
2013-02-19 22:32:00,53.0,-99.9,-100.00,WSW,250,13.0,20.0,-999,-99.99,,,-99.99,,2013-02-20 03:32:00,
2013-02-19 22:40:00,51.0,-99.9,-100.00,West,270,15.0,24.0,-999,-99.99,,,-99.99,,2013-02-20 03:40:00,
2013-02-19 23:02:00,51.0,-99.9,-100.00,West,270,15.0,24.0,-999,-99.99,,,-99.99,,2013-02-20 04:02:00,
2013-02-19 23:11:00,51.0,-99.9,-100.00,West,270,15.0,24.0,-999,-99.99,,,-99.99,,2013-02-20 04:11:00,
2013-02-19 23:22:00,51.0,-99.9,-100.00,West,270,15.0,24.0,-999,-99.99,,,-99.99,,2013-02-20 04:22:00,
2013-02-19 23:32:00,51.0,-99.9,-100.00,West,270,15.0,24.0,-999,-99.99,,,-99.99,,2013-02-20 04:32:00,
2013-02-19 23:40:00,50.0,-99.9,-100.00,West,270,15.0,25.0,-999,-99.99,,,-99.99,,2013-02-20 04:40:00,